Weather History for KOGB - March, 2012

Change the Weather History Date:

Friday, March 2, 2012

  Actual Average Record
Temperature  
Mean Temperature 73 °F 53 °F  
Max Temperature 81 °F 65 °F 81 °F (2012)
Min Temperature 64 °F 41 °F 15 °F (1980)
Degree Days  
Heating Degree Days 0 12  
Month to date heating degree days 0 24  
Since 1 July heating degree days 1586 1956  
Cooling Degree Days 8 0  
Month to date cooling degree days 12 0  
Year to date cooling degree days 24 3  
Growing Degree Days 22 (Base 50)    
Moisture  
Dew Point 62 °F    
Average Humidity 78    
Maximum Humidity 100    
Minimum Humidity 45    
Precipitation  
Precipitation 0.00 in 0.13 in 1.54 in (2002)
Month to date precipitation 0.34 0.26  
Year to date precipitation 3.52 7.83  
Sea Level Pressure  
Sea Level Pressure 29.90 in    
Wind  
Wind Speed 9 mph (SW)    
Max Wind Speed 24 mph    
Max Gust Speed 31 mph    
Visibility 8 miles    
Events      
T = Trace of Precipitation, MM = Missing Value Source: NWS Daily Summary

Daily Weather History Graph

Daily Weather History Graph

Search for Another Location

Airport or City:

Trip Planner

Search our weather history database for the weather conditions in past years. The results will help you decide how hot, cold, wet, or windy it might be!

Date:

Astronomy

Mar. 02, 2012 Rise Set
Actual Time 6:49 AM EST 6:21 PM EST
Civil Twilight 6:25 AM EST 6:46 PM EST
Nautical Twilight 5:56 AM EST 7:15 PM EST
Astronomical Twilight 5:27 AM EST 7:43 PM EST
Moon 12:45 PM EST (3/2) 2:25 AM EST (3/2)
Length of Visible Light 12h 21m
Length of Day
11h 31m
Waxing Gibbous, 66% of the Moon is Illuminated
Mar 2
Waxing Gibbous
Mar 8
Full
Mar 14
Last Quarter
Mar 22
New
Mar 30
First Quarter

Hourly Weather History & Observations

Time (EST) Temp. Heat Index Dew Point Humidity Pressure Visibility Wind Dir Wind Speed Gust Speed Precip Events Conditions
12:53 AM 64.0 °F - 62.1 °F 93% 29.92 in 8.0 mi SSW 3.5 mph - N/A   Partly Cloudy
1:53 AM 64.0 °F - 62.1 °F 93% 29.92 in 7.0 mi SW 4.6 mph - N/A   Clear
2:53 AM 64.0 °F - 62.1 °F 93% 29.91 in 6.0 mi SSW 3.5 mph - N/A   Partly Cloudy
3:11 AM 64.4 °F - 62.6 °F 94% 29.91 in 6.0 mi Calm Calm - N/A   Mostly Cloudy
3:21 AM 64.4 °F - 62.6 °F 94% 29.92 in 6.0 mi Calm Calm - N/A   Mostly Cloudy
3:53 AM 64.9 °F - 63.0 °F 93% 29.91 in 5.0 mi SSW 3.5 mph - N/A   Overcast
4:53 AM 64.9 °F - 64.0 °F 97% 29.92 in 5.0 mi SW 8.1 mph - N/A   Overcast
5:17 AM 66.2 °F - 64.4 °F 94% 29.93 in 6.0 mi SW 5.8 mph - N/A   Overcast
5:53 AM 66.0 °F - 64.0 °F 93% 29.93 in 7.0 mi SW 5.8 mph - N/A   Overcast
6:03 AM 66.2 °F - 64.4 °F 94% 29.93 in 7.0 mi Variable 4.6 mph - N/A   Overcast
6:13 AM 66.2 °F - 64.4 °F 94% 29.93 in 7.0 mi SW 5.8 mph - N/A   Overcast
6:34 AM 66.2 °F - 64.4 °F 94% 29.92 in 8.0 mi SW 6.9 mph - N/A   Overcast
6:53 AM 66.0 °F - 64.0 °F 93% 29.93 in 8.0 mi SW 8.1 mph - N/A   Overcast
7:39 AM 66.2 °F - 62.6 °F 88% 29.95 in 8.0 mi SW 9.2 mph - N/A   Overcast
7:53 AM 66.9 °F - 64.0 °F 90% 29.95 in 8.0 mi SW 6.9 mph - N/A   Mostly Cloudy
8:39 AM 66.2 °F - 62.6 °F 88% 29.96 in 9.0 mi SSW 8.1 mph - N/A   Mostly Cloudy
8:53 AM 68.0 °F - 64.0 °F 87% 29.96 in 10.0 mi SW 5.8 mph - N/A   Overcast
9:08 AM 68.0 °F - 64.4 °F 88% 29.97 in 10.0 mi SW 12.7 mph - N/A   Overcast
9:31 AM 69.8 °F - 62.6 °F 78% 29.98 in 7.0 mi WSW 12.7 mph 17.3 mph N/A   Overcast
9:53 AM 70.0 °F - 62.1 °F 76% 29.97 in 10.0 mi WSW 11.5 mph - N/A   Mostly Cloudy
10:53 AM 73.0 °F - 63.0 °F 71% 29.96 in 10.0 mi SW 16.1 mph 20.7 mph N/A   Mostly Cloudy
11:53 AM 75.9 °F - 62.1 °F 62% 29.92 in 10.0 mi SW 15.0 mph 20.7 mph N/A   Scattered Clouds
12:53 PM 79.0 °F - 62.1 °F 56% 29.89 in 10.0 mi WSW 10.4 mph 21.9 mph N/A   Mostly Cloudy
1:53 PM 79.0 °F - 60.1 °F 52% 29.86 in 10.0 mi SW 13.8 mph 23.0 mph N/A   Mostly Cloudy
2:53 PM 80.1 °F 80.6 °F 57.9 °F 47% 29.83 in 10.0 mi SW 20.7 mph 28.8 mph N/A   Partly Cloudy
3:53 PM 80.1 °F 80.6 °F 57.9 °F 47% 29.83 in 10.0 mi WSW 24.2 mph 29.9 mph N/A   Partly Cloudy
4:53 PM 78.1 °F - 57.9 °F 50% 29.82 in 10.0 mi SW 15.0 mph 24.2 mph N/A   Partly Cloudy
5:53 PM 75.0 °F - 59.0 °F 57% 29.81 in 10.0 mi SW 6.9 mph 18.4 mph N/A   Clear
6:53 PM 73.0 °F - 59.0 °F 61% 29.82 in 10.0 mi SW 5.8 mph - N/A   Clear
7:53 PM 71.1 °F - 59.0 °F 66% 29.82 in 10.0 mi South 4.6 mph - N/A   Clear
8:53 PM 70.0 °F - 57.9 °F 65% 29.80 in 10.0 mi South 9.2 mph - N/A   Clear
9:53 PM 70.0 °F - 57.9 °F 65% 29.82 in 10.0 mi SSW 6.9 mph - N/A   Clear
10:53 PM 70.0 °F - 59.0 °F 68% 29.79 in 10.0 mi SSW 6.9 mph - N/A   Clear
11:53 PM 69.1 °F - 59.0 °F 70% 29.77 in 10.0 mi South 8.1 mph - N/A   Clear